map of EGC home
EGC - Airport
Location
City:  Bergerac, Aquitaine, France
Name:Bergerac-Roumanière Airport
ICAO:LFBE
IATA:EGC

Details
Type:Airport (Aerodrome, Airfield)
Use:Public/Civil
Latitude:44°49'28"N (44.824431)
Longitude:0°31'14"E (0.520525)
Elevation:171 ft (52 m)
Variation:0.41°E (WMM2015 magnetic declination)
0.12° annual change
Runways:2
Longest:7234 × 148 ft (2205 × 45 m)

Time
Time Zone:UTC+1 (DST+2)
Local Time:

Weather
METAR:LFBE 130830Z AUTO 08005KT CAVOK 06/05 Q1007 BECMG OVC010
TAF:LFBE 130500Z 1306/1406 12008KT 9999 FEW010
BECMG 1310/1312 -RA OVC010
TEMPO 1312/1316 4000 RA
BECMG 1318/1321 VRB02KT NSW BKN015
BECMG 1321/1323 3000 BR NSC

Related Locations
Nearby:
Farthest:CHT: 12273 mi / 19752 km
Waitangi [Tuuta], CIT, NZ

Find:

   beyond  
but within

Other Information
Maps:
NOTAMs:
Links:
Sources:

  
  • flag of France
  • flag of Aquitaine
  

Sectional Chart

Flight Planning
at skyvector.com

Satellite Image

Google Maps Satellite view

 

Copyright © 2004-2018 Karl L. Swartz. All rights reserved.
The Great Circle Mapper name and logo are trademarks of the Great Circle Mapper.
All other trademarks mentioned herein belong to their respective owners.
Please see credits for attibutions and further copyright information.

  Follow gcmap on Facebook Follow gcmap on Twitter Follow gcmap on Google+ GCmap on LinkedIn

hCard Microformat

Geo Microformat